Location: Risskov
(56.1972°N, 10.2480°E)
Time: 00:26:34
(UTC+00:00)

Cosmos 1727 Rocket - Pass Details

Date: 05 July 2020
Orbit: 961 x 996 km, 82.9° (Epoch: 03 August)

Event Time Altitude Azimuth Distance (km) Brightness Sun altitude
Rises 23:34:04 0° 347° (NNW) 3,671 8.7 -11.1°
Reaches altitude 10° 23:36:36 10° 344° (NNW) 2,724 7.6 -11.1°
Maximum altitude 23:42:43 60° 266° (W) 1,108 4.3 -11.0°
Enters shadow 23:48:03 14° 190° (S) 2,440 5.4 -11.0°
